Year,Month,Day,Hour,Minute,Value (Times are PST for windgust in km/hr)
2011,07,01,00,00,6.40
2011,07,01,00,01,9.60
2011,07,01,00,02,8.10
2011,07,01,00,03,8.10
2011,07,01,00,04,8.10
2011,07,01,00,05,6.40
2011,07,01,00,06,8.10
2011,07,01,00,07,8.10
2011,07,01,00,08,8.10
2011,07,01,00,09,9.60
2011,07,01,00,10,8.10
2011,07,01,00,11,6.40
2011,07,01,00,12,8.10
2011,07,01,00,13,8.10
2011,07,01,00,14,6.40
2011,07,01,00,15,4.80
2011,07,01,00,16,6.40
2011,07,01,00,17,4.80
2011,07,01,00,18,9.60
2011,07,01,00,19,8.10
2011,07,01,00,20,4.80
2011,07,01,00,21,6.40
2011,07,01,00,22,6.40
2011,07,01,00,23,6.40
2011,07,01,00,24,4.80
2011,07,01,00,25,4.80
2011,07,01,00,26,8.10
2011,07,01,00,27,1.60
2011,07,01,00,28,4.80
2011,07,01,00,29,4.80
2011,07,01,00,30,1.60
2011,07,01,00,31,1.60
2011,07,01,00,32,3.20
2011,07,01,00,33,0.00
2011,07,01,00,34,0.00
2011,07,01,00,35,0.00
2011,07,01,00,36,0.00
2011,07,01,00,37,3.20
2011,07,01,00,38,4.80
2011,07,01,00,39,4.80
2011,07,01,00,40,6.40
2011,07,01,00,41,4.80
2011,07,01,00,42,4.80
2011,07,01,00,43,4.80
2011,07,01,00,44,4.80
2011,07,01,00,45,4.80
2011,07,01,00,46,0.00
2011,07,01,00,47,0.00
2011,07,01,00,48,0.00
2011,07,01,00,49,0.00
2011,07,01,00,50,0.00
2011,07,01,00,51,0.00
2011,07,01,00,52,0.00
2011,07,01,00,53,0.00
2011,07,01,00,54,0.00
2011,07,01,00,55,0.00
2011,07,01,00,56,0.00
2011,07,01,00,57,0.00
2011,07,01,00,58,0.00
2011,07,01,00,59,0.00
2011,07,01,01,00,0.00
2011,07,01,01,01,0.00
2011,07,01,01,02,0.00
2011,07,01,01,03,0.00
2011,07,01,01,04,0.00
2011,07,01,01,05,0.00
2011,07,01,01,06,0.00
2011,07,01,01,07,0.00
2011,07,01,01,08,0.00
2011,07,01,01,09,0.00
2011,07,01,01,10,0.00
2011,07,01,01,11,0.00
2011,07,01,01,12,0.00
2011,07,01,01,13,0.00
2011,07,01,01,14,0.00
2011,07,01,01,15,0.00
2011,07,01,01,16,0.00
2011,07,01,01,17,0.00
2011,07,01,01,18,0.00
2011,07,01,01,19,0.00
2011,07,01,01,20,0.00
2011,07,01,01,21,0.00
2011,07,01,01,22,0.00
2011,07,01,01,23,0.00
2011,07,01,01,24,0.00
2011,07,01,01,25,0.00
2011,07,01,01,26,0.00
2011,07,01,01,27,0.00
2011,07,01,01,28,0.00
2011,07,01,01,29,0.00
2011,07,01,01,30,0.00
2011,07,01,01,31,0.00
2011,07,01,01,32,0.00
2011,07,01,01,33,0.00
2011,07,01,01,34,0.00
2011,07,01,01,35,0.00
2011,07,01,01,36,0.00
2011,07,01,01,37,0.00
2011,07,01,01,38,0.00
2011,07,01,01,39,0.00
2011,07,01,01,40,0.00
2011,07,01,01,41,0.00
2011,07,01,01,42,0.00
2011,07,01,01,43,0.00
2011,07,01,01,44,0.00
2011,07,01,01,45,0.00
2011,07,01,01,46,0.00
2011,07,01,01,47,0.00
2011,07,01,01,48,4.80
2011,07,01,01,49,3.20
2011,07,01,01,50,0.00
2011,07,01,01,51,0.00
2011,07,01,01,52,0.00
2011,07,01,01,53,0.00
2011,07,01,01,54,0.00
2011,07,01,01,55,0.00
2011,07,01,01,56,0.00
2011,07,01,01,57,0.00
2011,07,01,01,58,0.00
2011,07,01,01,59,0.00
2011,07,01,02,00,0.00
2011,07,01,02,01,0.00
2011,07,01,02,02,0.00
2011,07,01,02,03,0.00
2011,07,01,02,04,0.00
2011,07,01,02,05,0.00
2011,07,01,02,06,0.00
2011,07,01,02,07,0.00
2011,07,01,02,08,0.00
2011,07,01,02,09,0.00
2011,07,01,02,10,0.00
2011,07,01,02,11,0.00
2011,07,01,02,12,0.00
2011,07,01,02,13,0.00
2011,07,01,02,14,0.00
2011,07,01,02,15,6.40
2011,07,01,02,16,4.80
2011,07,01,02,17,9.60
2011,07,01,02,18,1.60
2011,07,01,02,19,0.00
2011,07,01,02,20,1.60
2011,07,01,02,21,0.00
2011,07,01,02,22,6.40
2011,07,01,02,23,4.80
2011,07,01,02,24,4.80
2011,07,01,02,25,3.20
2011,07,01,02,26,0.00
2011,07,01,02,27,0.00
2011,07,01,02,28,0.00
2011,07,01,02,29,0.00
2011,07,01,02,30,0.00
2011,07,01,02,31,0.00
2011,07,01,02,32,0.00
2011,07,01,02,33,0.00
2011,07,01,02,34,0.00
2011,07,01,02,35,0.00
2011,07,01,02,36,0.00
2011,07,01,02,37,0.00
2011,07,01,02,38,0.00
2011,07,01,02,39,0.00
2011,07,01,02,40,0.00
2011,07,01,02,41,0.00
2011,07,01,02,42,0.00
2011,07,01,02,43,0.00
2011,07,01,02,44,0.00
2011,07,01,02,45,0.00
2011,07,01,02,46,0.00
2011,07,01,02,47,0.00
2011,07,01,02,48,0.00
2011,07,01,02,49,0.00
2011,07,01,02,50,0.00
2011,07,01,02,51,0.00
2011,07,01,02,52,0.00
2011,07,01,02,53,0.00
2011,07,01,02,54,0.00
2011,07,01,02,55,0.00
2011,07,01,02,56,0.00
2011,07,01,02,57,0.00
2011,07,01,02,58,0.00
2011,07,01,02,59,0.00
2011,07,01,03,00,0.00
2011,07,01,03,01,0.00
2011,07,01,03,02,3.20
2011,07,01,03,03,3.20
2011,07,01,03,04,0.00
2011,07,01,03,05,0.00
2011,07,01,03,06,0.00
2011,07,01,03,07,0.00
2011,07,01,03,08,0.00
2011,07,01,03,09,0.00
2011,07,01,03,10,0.00
2011,07,01,03,11,0.00
2011,07,01,03,12,0.00
2011,07,01,03,13,0.00
2011,07,01,03,14,0.00
2011,07,01,03,15,0.00
2011,07,01,03,16,0.00
2011,07,01,03,17,0.00
2011,07,01,03,18,0.00
2011,07,01,03,19,0.00
2011,07,01,03,20,0.00
2011,07,01,03,21,0.00
2011,07,01,03,22,0.00
2011,07,01,03,23,3.20
2011,07,01,03,24,4.80
2011,07,01,03,25,3.20
2011,07,01,03,26,4.80
2011,07,01,03,27,3.20
2011,07,01,03,28,4.80
2011,07,01,03,29,3.20
2011,07,01,03,30,3.20
2011,07,01,03,31,0.00
2011,07,01,03,32,0.00
2011,07,01,03,33,0.00
2011,07,01,03,34,0.00
2011,07,01,03,35,0.00
2011,07,01,03,36,0.00
2011,07,01,03,37,3.20
2011,07,01,03,38,3.20
2011,07,01,03,39,0.00
2011,07,01,03,40,0.00
2011,07,01,03,41,0.00
2011,07,01,03,42,0.00
2011,07,01,03,43,0.00
2011,07,01,03,44,0.00
2011,07,01,03,45,0.00
2011,07,01,03,46,0.00
2011,07,01,03,47,0.00
2011,07,01,03,48,0.00
2011,07,01,03,49,0.00
2011,07,01,03,50,0.00
2011,07,01,03,51,0.00
2011,07,01,03,52,0.00
2011,07,01,03,53,0.00
2011,07,01,03,54,0.00
2011,07,01,03,55,0.00
2011,07,01,03,56,0.00
2011,07,01,03,57,0.00
2011,07,01,03,58,0.00
2011,07,01,03,59,0.00
2011,07,01,04,00,0.00
2011,07,01,04,01,0.00
2011,07,01,04,02,0.00
2011,07,01,04,03,0.00
2011,07,01,04,04,1.60
2011,07,01,04,05,1.60
2011,07,01,04,06,0.00
2011,07,01,04,07,0.00
2011,07,01,04,08,0.00
2011,07,01,04,09,0.00
2011,07,01,04,10,0.00
2011,07,01,04,11,1.60
2011,07,01,04,12,0.00
2011,07,01,04,13,0.00
2011,07,01,04,14,0.00
2011,07,01,04,15,0.00
2011,07,01,04,16,0.00
2011,07,01,04,17,0.00
2011,07,01,04,18,0.00
2011,07,01,04,19,0.00
2011,07,01,04,20,0.00
2011,07,01,04,21,0.00
2011,07,01,04,22,0.00
2011,07,01,04,23,0.00
2011,07,01,04,24,0.00
2011,07,01,04,25,0.00
2011,07,01,04,26,0.00
2011,07,01,04,27,0.00
2011,07,01,04,28,0.00
2011,07,01,04,29,0.00
2011,07,01,04,30,0.00
2011,07,01,04,31,0.00
2011,07,01,04,32,0.00
2011,07,01,04,33,0.00
2011,07,01,04,34,0.00
2011,07,01,04,35,0.00
2011,07,01,04,36,0.00
2011,07,01,04,37,0.00
2011,07,01,04,38,0.00
2011,07,01,04,39,0.00
2011,07,01,04,40,0.00
2011,07,01,04,41,0.00
2011,07,01,04,42,0.00
2011,07,01,04,43,0.00
2011,07,01,04,44,0.00
2011,07,01,04,45,0.00
2011,07,01,04,46,0.00
2011,07,01,04,47,0.00
2011,07,01,04,48,0.00
2011,07,01,04,49,0.00
2011,07,01,04,50,0.00
2011,07,01,04,51,0.00
2011,07,01,04,52,4.80
2011,07,01,04,53,4.80
2011,07,01,04,54,4.80
2011,07,01,04,55,4.80
2011,07,01,04,56,3.20
2011,07,01,04,57,4.80
2011,07,01,04,58,1.60
2011,07,01,04,59,1.60
2011,07,01,05,00,3.20
2011,07,01,05,01,3.20
2011,07,01,05,02,1.60
2011,07,01,05,03,0.00
2011,07,01,05,04,0.00
2011,07,01,05,05,0.00
2011,07,01,05,06,0.00
2011,07,01,05,07,0.00
2011,07,01,05,08,0.00
2011,07,01,05,09,0.00
2011,07,01,05,10,0.00
2011,07,01,05,11,0.00
2011,07,01,05,12,0.00
2011,07,01,05,13,0.00
2011,07,01,05,14,0.00
2011,07,01,05,15,1.60
2011,07,01,05,16,3.20
2011,07,01,05,17,4.80
2011,07,01,05,18,6.40
2011,07,01,05,19,6.40
2011,07,01,05,20,6.40
2011,07,01,05,21,6.40
2011,07,01,05,22,6.40
2011,07,01,05,23,6.40
2011,07,01,05,24,6.40
2011,07,01,05,25,4.80
2011,07,01,05,26,4.80
2011,07,01,05,27,0.00
2011,07,01,05,28,0.00
2011,07,01,05,29,0.00
2011,07,01,05,30,0.00
2011,07,01,05,31,0.00
2011,07,01,05,32,0.00
2011,07,01,05,33,1.60
2011,07,01,05,34,4.80
2011,07,01,05,35,4.80
2011,07,01,05,36,4.80
2011,07,01,05,37,3.20
2011,07,01,05,38,0.00
2011,07,01,05,39,0.00
2011,07,01,05,40,0.00
2011,07,01,05,41,3.20
2011,07,01,05,42,3.20
2011,07,01,05,43,0.00
2011,07,01,05,44,3.20
2011,07,01,05,45,3.20
2011,07,01,05,46,4.80
2011,07,01,05,47,4.80
2011,07,01,05,48,4.80
2011,07,01,05,49,4.80
2011,07,01,05,50,4.80
2011,07,01,05,51,6.40
2011,07,01,05,52,4.80
2011,07,01,05,53,4.80
2011,07,01,05,54,6.40
2011,07,01,05,55,4.80
2011,07,01,05,56,6.40
2011,07,01,05,57,6.40
2011,07,01,05,58,6.40
2011,07,01,05,59,4.80
2011,07,01,06,00,6.40
2011,07,01,06,01,4.80
2011,07,01,06,02,4.80
2011,07,01,06,03,4.80
2011,07,01,06,04,3.20
2011,07,01,06,05,0.00
2011,07,01,06,06,0.00
2011,07,01,06,07,0.00
2011,07,01,06,08,0.00
2011,07,01,06,09,0.00
2011,07,01,06,10,3.20
2011,07,01,06,11,4.80
2011,07,01,06,12,6.40
2011,07,01,06,13,4.80
2011,07,01,06,14,3.20
2011,07,01,06,15,4.80
2011,07,01,06,16,4.80
2011,07,01,06,17,4.80
2011,07,01,06,18,4.80
2011,07,01,06,19,4.80
2011,07,01,06,20,3.20
2011,07,01,06,21,3.20
2011,07,01,06,22,4.80
2011,07,01,06,23,3.20
2011,07,01,06,24,3.20
2011,07,01,06,25,0.00
2011,07,01,06,26,0.00
2011,07,01,06,27,0.00
2011,07,01,06,28,4.80
2011,07,01,06,29,4.80
2011,07,01,06,30,4.80
2011,07,01,06,31,4.80
2011,07,01,06,32,4.80
2011,07,01,06,33,4.80
2011,07,01,06,34,4.80
2011,07,01,06,35,0.00
2011,07,01,06,36,3.20
2011,07,01,06,37,6.40
2011,07,01,06,38,4.80
2011,07,01,06,39,4.80
2011,07,01,06,40,3.20
2011,07,01,06,41,4.80
2011,07,01,06,42,0.00
2011,07,01,06,43,4.80
2011,07,01,06,44,4.80
2011,07,01,06,45,4.80
2011,07,01,06,46,6.40
2011,07,01,06,47,4.80
2011,07,01,06,48,4.80
2011,07,01,06,49,4.80
2011,07,01,06,50,4.80
2011,07,01,06,51,4.80
2011,07,01,06,52,4.80
2011,07,01,06,53,4.80
2011,07,01,06,54,6.40
2011,07,01,06,55,4.80
2011,07,01,06,56,8.10
2011,07,01,06,57,8.10
2011,07,01,06,58,8.10
2011,07,01,06,59,8.10
2011,07,01,07,00,4.80
2011,07,01,07,01,6.40
2011,07,01,07,02,6.40
2011,07,01,07,03,6.40
2011,07,01,07,04,8.10
2011,07,01,07,05,8.10
2011,07,01,07,06,6.40
2011,07,01,07,07,6.40
2011,07,01,07,08,6.40
2011,07,01,07,09,6.40
2011,07,01,07,10,8.10
2011,07,01,07,11,6.40
2011,07,01,07,12,6.40
2011,07,01,07,13,4.80
2011,07,01,07,14,4.80
2011,07,01,07,15,8.10
2011,07,01,07,16,4.80
2011,07,01,07,17,6.40
2011,07,01,07,18,6.40
2011,07,01,07,19,4.80
2011,07,01,07,20,6.40
2011,07,01,07,21,4.80
2011,07,01,07,22,4.80
2011,07,01,07,23,4.80
2011,07,01,07,24,4.80
2011,07,01,07,25,4.80
2011,07,01,07,26,3.20
2011,07,01,07,27,3.20
2011,07,01,07,28,3.20
2011,07,01,07,29,0.00
2011,07,01,07,30,0.00
2011,07,01,07,31,0.00
2011,07,01,07,32,0.00
2011,07,01,07,33,0.00
2011,07,01,07,34,0.00
2011,07,01,07,35,0.00
2011,07,01,07,36,0.00
2011,07,01,07,37,0.00
2011,07,01,07,38,0.00
2011,07,01,07,39,0.00
2011,07,01,07,40,0.00
2011,07,01,07,41,0.00
2011,07,01,07,42,0.00
2011,07,01,07,43,0.00
2011,07,01,07,44,0.00
2011,07,01,07,45,0.00
2011,07,01,07,46,3.20
2011,07,01,07,47,4.80
2011,07,01,07,48,4.80
2011,07,01,07,49,4.80
2011,07,01,07,50,4.80
2011,07,01,07,51,4.80
2011,07,01,07,52,3.20
2011,07,01,07,53,3.20
2011,07,01,07,54,3.20
2011,07,01,07,55,0.00
2011,07,01,07,56,0.00
2011,07,01,07,57,0.00
2011,07,01,07,58,0.00
2011,07,01,07,59,0.00
2011,07,01,08,00,0.00
2011,07,01,08,01,0.00
2011,07,01,08,02,0.00
2011,07,01,08,03,0.00
2011,07,01,08,04,0.00
2011,07,01,08,05,0.00
2011,07,01,08,06,0.00
2011,07,01,08,07,0.00
2011,07,01,08,08,1.60
2011,07,01,08,09,0.00
2011,07,01,08,10,0.00
2011,07,01,08,11,3.20
2011,07,01,08,12,3.20
2011,07,01,08,13,3.20
2011,07,01,08,14,3.20
2011,07,01,08,15,1.60
2011,07,01,08,16,0.00
2011,07,01,08,17,1.60
2011,07,01,08,18,0.00
2011,07,01,08,19,0.00
2011,07,01,08,20,0.00
2011,07,01,08,21,0.00
2011,07,01,08,22,0.00
2011,07,01,08,23,0.00
2011,07,01,08,24,0.00
2011,07,01,08,25,0.00
2011,07,01,08,26,0.00
2011,07,01,08,27,1.60
2011,07,01,08,28,0.00
2011,07,01,08,29,0.00
2011,07,01,08,30,0.00
2011,07,01,08,31,0.00
2011,07,01,08,32,0.00
2011,07,01,08,33,0.00
2011,07,01,08,34,0.00
2011,07,01,08,35,0.00
2011,07,01,08,36,0.00
2011,07,01,08,37,0.00
2011,07,01,08,38,1.60
2011,07,01,08,39,3.20
2011,07,01,08,40,0.00
2011,07,01,08,41,4.80
2011,07,01,08,42,4.80
2011,07,01,08,43,4.80
2011,07,01,08,44,3.20
2011,07,01,08,45,0.00
2011,07,01,08,46,1.60
2011,07,01,08,47,3.20
2011,07,01,08,48,6.40
2011,07,01,08,49,6.40
2011,07,01,08,50,4.80
2011,07,01,08,51,4.80
2011,07,01,08,52,1.60
2011,07,01,08,53,0.00
2011,07,01,08,54,0.00
2011,07,01,08,55,0.00
2011,07,01,08,56,4.80
2011,07,01,08,57,3.20
2011,07,01,08,58,3.20
2011,07,01,08,59,3.20
2011,07,01,09,00,0.00
2011,07,01,09,01,4.80
2011,07,01,09,02,4.80
2011,07,01,09,03,0.00
2011,07,01,09,04,0.00
2011,07,01,09,05,0.00
2011,07,01,09,06,0.00
2011,07,01,09,07,0.00
2011,07,01,09,08,3.20
2011,07,01,09,09,0.00
2011,07,01,09,10,0.00
2011,07,01,09,11,0.00
2011,07,01,09,12,0.00
2011,07,01,09,13,0.00
2011,07,01,09,14,1.60
2011,07,01,09,15,3.20
2011,07,01,09,16,6.40
2011,07,01,09,17,3.20
2011,07,01,09,18,0.00
2011,07,01,09,19,0.00
2011,07,01,09,20,0.00
2011,07,01,09,21,3.20
2011,07,01,09,22,0.00
2011,07,01,09,23,4.80
2011,07,01,09,24,3.20
2011,07,01,09,25,3.20
2011,07,01,09,26,4.80
2011,07,01,09,27,4.80
2011,07,01,09,28,3.20
2011,07,01,09,29,0.00
2011,07,01,09,30,0.00
2011,07,01,09,31,0.00
2011,07,01,09,32,0.00
2011,07,01,09,33,0.00
2011,07,01,09,34,0.00
2011,07,01,09,35,1.60
2011,07,01,09,36,4.80
2011,07,01,09,37,4.80
2011,07,01,09,38,3.20
2011,07,01,09,39,0.00
2011,07,01,09,40,0.00
2011,07,01,09,41,0.00
2011,07,01,09,42,4.80
2011,07,01,09,43,4.80
2011,07,01,09,44,4.80
2011,07,01,09,45,3.20
2011,07,01,09,46,1.60
2011,07,01,09,47,0.00
2011,07,01,09,48,4.80
2011,07,01,09,49,3.20
2011,07,01,09,50,1.60
2011,07,01,09,51,4.80
2011,07,01,09,52,1.60
2011,07,01,09,53,0.00
2011,07,01,09,54,4.80
2011,07,01,09,55,3.20
2011,07,01,09,56,3.20
2011,07,01,09,57,1.60
2011,07,01,09,58,6.40
2011,07,01,09,59,1.60
2011,07,01,10,00,1.60
2011,07,01,10,01,1.60
2011,07,01,10,02,1.60
2011,07,01,10,03,0.00
2011,07,01,10,04,0.00
2011,07,01,10,05,0.00
2011,07,01,10,06,1.60
2011,07,01,10,07,1.60
2011,07,01,10,08,1.60
2011,07,01,10,09,1.60
2011,07,01,10,10,1.60
2011,07,01,10,11,0.00
2011,07,01,10,12,0.00
2011,07,01,10,13,3.20
2011,07,01,10,14,1.60
2011,07,01,10,15,3.20
2011,07,01,10,16,6.40
2011,07,01,10,17,8.10
2011,07,01,10,18,6.40
2011,07,01,10,19,8.10
2011,07,01,10,20,11.30
2011,07,01,10,21,12.90
2011,07,01,10,22,9.60
2011,07,01,10,23,6.40
2011,07,01,10,24,9.60
2011,07,01,10,25,9.60
2011,07,01,10,26,9.60
2011,07,01,10,27,16.10
2011,07,01,10,28,11.30
2011,07,01,10,29,14.50
2011,07,01,10,30,14.50
2011,07,01,10,31,9.60
2011,07,01,10,32,11.30
2011,07,01,10,33,14.50
2011,07,01,10,34,19.30
2011,07,01,10,35,9.60
2011,07,01,10,36,8.10
2011,07,01,10,37,9.60
2011,07,01,10,38,11.30
2011,07,01,10,39,11.30
2011,07,01,10,40,9.60
2011,07,01,10,41,14.50
2011,07,01,10,42,16.10
2011,07,01,10,43,9.60
2011,07,01,10,44,9.60
2011,07,01,10,45,16.10
2011,07,01,10,46,16.10
2011,07,01,10,47,16.10
2011,07,01,10,48,14.50
2011,07,01,10,49,11.30
2011,07,01,10,50,11.30
2011,07,01,10,51,11.30
2011,07,01,10,52,16.10
2011,07,01,10,53,16.10
2011,07,01,10,54,11.30
2011,07,01,10,55,14.50
2011,07,01,10,56,9.60
2011,07,01,10,57,14.50
2011,07,01,10,58,14.50
2011,07,01,10,59,14.50
2011,07,01,11,00,14.50
2011,07,01,11,01,16.10
2011,07,01,11,02,11.30
2011,07,01,11,03,16.10
2011,07,01,11,04,12.90
2011,07,01,11,05,11.30
2011,07,01,11,06,14.50
2011,07,01,11,07,19.30
2011,07,01,11,08,20.90
2011,07,01,11,09,17.70
2011,07,01,11,10,17.70
2011,07,01,11,11,16.10
2011,07,01,11,12,9.60
2011,07,01,11,13,11.30
2011,07,01,11,14,22.50
2011,07,01,11,15,17.70
2011,07,01,11,16,8.10
2011,07,01,11,17,11.30
2011,07,01,11,18,16.10
2011,07,01,11,19,19.30
2011,07,01,11,20,12.90
2011,07,01,11,21,8.10
2011,07,01,11,22,11.30
2011,07,01,11,23,14.50
2011,07,01,11,24,9.60
2011,07,01,11,25,14.50
2011,07,01,11,26,14.50
2011,07,01,11,27,9.60
2011,07,01,11,28,16.10
2011,07,01,11,29,14.50
2011,07,01,11,30,12.90
2011,07,01,11,31,19.30
2011,07,01,11,32,11.30
2011,07,01,11,33,16.10
2011,07,01,11,34,11.30
2011,07,01,11,35,9.60
2011,07,01,11,36,9.60
2011,07,01,11,37,12.90
2011,07,01,11,38,12.90
2011,07,01,11,39,16.10
2011,07,01,11,40,16.10
2011,07,01,11,41,19.30
2011,07,01,11,42,14.50
2011,07,01,11,43,11.30
2011,07,01,11,44,16.10
2011,07,01,11,45,17.70
2011,07,01,11,46,16.10
2011,07,01,11,47,14.50
2011,07,01,11,48,9.60
2011,07,01,11,49,9.60
2011,07,01,11,50,16.10
2011,07,01,11,51,12.90
2011,07,01,11,52,11.30
2011,07,01,11,53,11.30
2011,07,01,11,54,11.30
2011,07,01,11,55,8.10
2011,07,01,11,56,8.10
2011,07,01,11,57,4.80
2011,07,01,11,58,6.40
2011,07,01,11,59,14.50
2011,07,01,12,00,8.10
2011,07,01,12,01,6.40
2011,07,01,12,02,14.50
2011,07,01,12,03,14.50
2011,07,01,12,04,9.60
2011,07,01,12,05,6.40
2011,07,01,12,06,9.60
2011,07,01,12,07,9.60
2011,07,01,12,08,12.90
2011,07,01,12,09,8.10
2011,07,01,12,10,9.60
2011,07,01,12,11,9.60
2011,07,01,12,12,9.60
2011,07,01,12,13,9.60
2011,07,01,12,14,8.10
2011,07,01,12,15,8.10
2011,07,01,12,16,11.30
2011,07,01,12,17,14.50
2011,07,01,12,18,14.50
2011,07,01,12,19,14.50
2011,07,01,12,20,14.50
2011,07,01,12,21,19.30
2011,07,01,12,22,16.10
2011,07,01,12,23,11.30
2011,07,01,12,24,19.30
2011,07,01,12,25,11.30
2011,07,01,12,26,11.30
2011,07,01,12,27,17.70
2011,07,01,12,28,17.70
2011,07,01,12,29,11.30
2011,07,01,12,30,8.10
2011,07,01,12,31,9.60
2011,07,01,12,32,11.30
2011,07,01,12,33,6.40
2011,07,01,12,34,4.80
2011,07,01,12,35,9.60
2011,07,01,12,36,14.50
2011,07,01,12,37,16.10
2011,07,01,12,38,12.90
2011,07,01,12,39,14.50
2011,07,01,12,40,16.10
2011,07,01,12,41,16.10
2011,07,01,12,42,14.50
2011,07,01,12,43,20.90
2011,07,01,12,44,17.70
2011,07,01,12,45,11.30
2011,07,01,12,46,14.50
2011,07,01,12,47,12.90
2011,07,01,12,48,22.50
2011,07,01,12,49,19.30
2011,07,01,12,50,17.70
2011,07,01,12,51,17.70
2011,07,01,12,52,17.70
2011,07,01,12,53,17.70
2011,07,01,12,54,20.90
2011,07,01,12,55,20.90
2011,07,01,12,56,17.70
2011,07,01,12,57,19.30
2011,07,01,12,58,17.70
2011,07,01,12,59,19.30
2011,07,01,13,00,19.30
2011,07,01,13,01,19.30
2011,07,01,13,02,20.90
2011,07,01,13,03,20.90
2011,07,01,13,04,24.20
2011,07,01,13,05,25.70
2011,07,01,13,06,22.50
2011,07,01,13,07,20.90
2011,07,01,13,08,19.30
2011,07,01,13,09,20.90
2011,07,01,13,10,16.10
2011,07,01,13,11,22.50
2011,07,01,13,12,25.70
2011,07,01,13,13,25.70
2011,07,01,13,14,19.30
2011,07,01,13,15,19.30
2011,07,01,13,16,22.50
2011,07,01,13,17,19.30
2011,07,01,13,18,14.50
2011,07,01,13,19,16.10
2011,07,01,13,20,19.30
2011,07,01,13,21,24.20
2011,07,01,13,22,20.90
2011,07,01,13,23,25.70
2011,07,01,13,24,25.70
2011,07,01,13,25,22.50
2011,07,01,13,26,22.50
2011,07,01,13,27,19.30
2011,07,01,13,28,27.40
2011,07,01,13,29,12.90
2011,07,01,13,30,19.30
2011,07,01,13,31,16.10
2011,07,01,13,32,16.10
2011,07,01,13,33,17.70
2011,07,01,13,34,17.70
2011,07,01,13,35,17.70
2011,07,01,13,36,22.50
2011,07,01,13,37,22.50
2011,07,01,13,38,27.40
2011,07,01,13,39,24.20
2011,07,01,13,40,19.30
2011,07,01,13,41,27.40
2011,07,01,13,42,20.90
2011,07,01,13,43,19.30
2011,07,01,13,44,20.90
2011,07,01,13,45,11.30
2011,07,01,13,46,17.70
2011,07,01,13,47,24.20
2011,07,01,13,48,24.20
2011,07,01,13,49,24.20
2011,07,01,13,50,22.50
2011,07,01,13,51,22.50
2011,07,01,13,52,20.90
2011,07,01,13,53,17.70
2011,07,01,13,54,25.70
2011,07,01,13,55,19.30
2011,07,01,13,56,27.40
2011,07,01,13,57,14.50
2011,07,01,13,58,17.70
2011,07,01,13,59,20.90
2011,07,01,14,00,19.30
2011,07,01,14,01,22.50
2011,07,01,14,02,20.90
2011,07,01,14,03,24.20
2011,07,01,14,04,24.20
2011,07,01,14,05,24.20
2011,07,01,14,06,17.70
2011,07,01,14,07,20.90
2011,07,01,14,08,17.70
2011,07,01,14,09,24.20
2011,07,01,14,10,25.70
2011,07,01,14,11,24.20
2011,07,01,14,12,20.90
2011,07,01,14,13,17.70
2011,07,01,14,14,25.70
2011,07,01,14,15,20.90
2011,07,01,14,16,14.50
2011,07,01,14,17,9.60
2011,07,01,14,18,24.20
2011,07,01,14,19,19.30
2011,07,01,14,20,17.70
2011,07,01,14,21,17.70
2011,07,01,14,22,17.70
2011,07,01,14,23,8.10
2011,07,01,14,24,16.10
2011,07,01,14,25,14.50
2011,07,01,14,26,24.20
2011,07,01,14,27,19.30
2011,07,01,14,28,17.70
2011,07,01,14,29,20.90
2011,07,01,14,30,20.90
2011,07,01,14,31,16.10
2011,07,01,14,32,20.90
2011,07,01,14,33,19.30
2011,07,01,14,34,14.50
2011,07,01,14,35,14.50
2011,07,01,14,36,17.70
2011,07,01,14,37,19.30
2011,07,01,14,38,25.70
2011,07,01,14,39,16.10
2011,07,01,14,40,22.50
2011,07,01,14,41,14.50
2011,07,01,14,42,14.50
2011,07,01,14,43,17.70
2011,07,01,14,44,20.90
2011,07,01,14,45,19.30
2011,07,01,14,46,16.10
2011,07,01,14,47,8.10
2011,07,01,14,48,12.90
2011,07,01,14,49,20.90
2011,07,01,14,50,17.70
2011,07,01,14,51,14.50
2011,07,01,14,52,19.30
2011,07,01,14,53,20.90
2011,07,01,14,54,22.50
2011,07,01,14,55,16.10
2011,07,01,14,56,19.30
2011,07,01,14,57,16.10
2011,07,01,14,58,24.20
2011,07,01,14,59,22.50
2011,07,01,15,00,19.30
2011,07,01,15,01,16.10
2011,07,01,15,02,22.50
2011,07,01,15,03,27.40
2011,07,01,15,04,12.90
2011,07,01,15,05,25.70
2011,07,01,15,06,19.30
2011,07,01,15,07,19.30
2011,07,01,15,08,16.10
2011,07,01,15,09,12.90
2011,07,01,15,10,19.30
2011,07,01,15,11,19.30
2011,07,01,15,12,19.30
2011,07,01,15,13,12.90
2011,07,01,15,14,12.90
2011,07,01,15,15,14.50
2011,07,01,15,16,14.50
2011,07,01,15,17,20.90
2011,07,01,15,18,20.90
2011,07,01,15,19,17.70
2011,07,01,15,20,19.30
2011,07,01,15,21,16.10
2011,07,01,15,22,20.90
2011,07,01,15,23,19.30
2011,07,01,15,24,16.10
2011,07,01,15,25,16.10
2011,07,01,15,26,19.30
2011,07,01,15,27,27.40
2011,07,01,15,28,22.50
2011,07,01,15,29,19.30
2011,07,01,15,30,16.10
2011,07,01,15,31,20.90
2011,07,01,15,32,22.50
2011,07,01,15,33,19.30
2011,07,01,15,34,20.90
2011,07,01,15,35,20.90
2011,07,01,15,36,19.30
2011,07,01,15,37,20.90
2011,07,01,15,38,20.90
2011,07,01,15,39,17.70
2011,07,01,15,40,17.70
2011,07,01,15,41,17.70
2011,07,01,15,42,14.50
2011,07,01,15,43,14.50
2011,07,01,15,44,17.70
2011,07,01,15,45,16.10
2011,07,01,15,46,22.50
2011,07,01,15,47,9.60
2011,07,01,15,48,22.50
2011,07,01,15,49,14.50
2011,07,01,15,50,16.10
2011,07,01,15,51,27.40
2011,07,01,15,52,16.10
2011,07,01,15,53,17.70
2011,07,01,15,54,16.10
2011,07,01,15,55,19.30
2011,07,01,15,56,8.10
2011,07,01,15,57,19.30
2011,07,01,15,58,22.50
2011,07,01,15,59,17.70
2011,07,01,16,00,14.50
2011,07,01,16,01,11.30
2011,07,01,16,02,9.60
2011,07,01,16,03,17.70
2011,07,01,16,04,19.30
2011,07,01,16,05,19.30
2011,07,01,16,06,14.50
2011,07,01,16,07,17.70
2011,07,01,16,08,20.90
2011,07,01,16,09,17.70
2011,07,01,16,10,19.30
2011,07,01,16,11,12.90
2011,07,01,16,12,16.10
2011,07,01,16,13,14.50
2011,07,01,16,14,12.90
2011,07,01,16,15,16.10
2011,07,01,16,16,9.60
2011,07,01,16,17,8.10
2011,07,01,16,18,17.70
2011,07,01,16,19,19.30
2011,07,01,16,20,20.90
2011,07,01,16,21,19.30
2011,07,01,16,22,17.70
2011,07,01,16,23,12.90
2011,07,01,16,24,19.30
2011,07,01,16,25,17.70
2011,07,01,16,26,20.90
2011,07,01,16,27,19.30
2011,07,01,16,28,11.30
2011,07,01,16,29,16.10
2011,07,01,16,30,6.40
2011,07,01,16,31,17.70
2011,07,01,16,32,14.50
2011,07,01,16,33,11.30
2011,07,01,16,34,22.50
2011,07,01,16,35,17.70
2011,07,01,16,36,19.30
2011,07,01,16,37,16.10
2011,07,01,16,38,20.90
2011,07,01,16,39,22.50
2011,07,01,16,40,14.50
2011,07,01,16,41,24.20
2011,07,01,16,42,16.10
2011,07,01,16,43,8.10
2011,07,01,16,44,16.10
2011,07,01,16,45,19.30
2011,07,01,16,46,19.30
2011,07,01,16,47,16.10
2011,07,01,16,48,17.70
2011,07,01,16,49,20.90
2011,07,01,16,50,19.30
2011,07,01,16,51,24.20
2011,07,01,16,52,8.10
2011,07,01,16,53,16.10
2011,07,01,16,54,17.70
2011,07,01,16,55,16.10
2011,07,01,16,56,9.60
2011,07,01,16,57,9.60
2011,07,01,16,58,8.10
2011,07,01,16,59,22.50
2011,07,01,17,00,20.90
2011,07,01,17,01,22.50
2011,07,01,17,02,20.90
2011,07,01,17,03,17.70
2011,07,01,17,04,19.30
2011,07,01,17,05,11.30
2011,07,01,17,06,19.30
2011,07,01,17,07,17.70
2011,07,01,17,08,20.90
2011,07,01,17,09,17.70
2011,07,01,17,10,11.30
2011,07,01,17,11,11.30
2011,07,01,17,12,9.60
2011,07,01,17,13,17.70
2011,07,01,17,14,17.70
2011,07,01,17,15,25.70
2011,07,01,17,16,27.40
2011,07,01,17,17,27.40
2011,07,01,17,18,16.10
2011,07,01,17,19,17.70
2011,07,01,17,20,14.50
2011,07,01,17,21,16.10
2011,07,01,17,22,19.30
2011,07,01,17,23,11.30
2011,07,01,17,24,11.30
2011,07,01,17,25,9.60
2011,07,01,17,26,16.10
2011,07,01,17,27,17.70
2011,07,01,17,28,19.30
2011,07,01,17,29,19.30
2011,07,01,17,30,19.30
2011,07,01,17,31,11.30
2011,07,01,17,32,11.30
2011,07,01,17,33,9.60
2011,07,01,17,34,16.10
2011,07,01,17,35,17.70
2011,07,01,17,36,16.10
2011,07,01,17,37,20.90
2011,07,01,17,38,20.90
2011,07,01,17,39,14.50
2011,07,01,17,40,11.30
2011,07,01,17,41,12.90
2011,07,01,17,42,14.50
2011,07,01,17,43,12.90
2011,07,01,17,44,14.50
2011,07,01,17,45,19.30
2011,07,01,17,46,20.90
2011,07,01,17,47,22.50
2011,07,01,17,48,16.10
2011,07,01,17,49,14.50